EN

Hourly Weather Aberchirder

Today, 27 October, Tuesday

Time Temperature Precipitation Wind Pressure Humidity
00:00 +5°C° 0.1 mm 5 mps 731 mmHg 92%
01:00 +5°C° 0 mm 5 mps 731 mmHg 92%
02:00 +5°C° 0 mm 5 mps 731 mmHg 93%
03:00 +3°C° 0 mm 5 mps 731 mmHg 93%
04:00 +4°C° 0 mm 4 mps 731 mmHg 92%
05:00 +4°C° 0 mm 4 mps 731 mmHg 92%
06:00 +4°C° 0 mm 4 mps 731 mmHg 91%
07:00 +5°C° 0 mm 3 mps 731 mmHg 90%
08:00 +6°C° 0 mm 2 mps 731 mmHg 88%
09:00 +6°C° 0 mm 2 mps 731 mmHg 86%
10:00 +7°C° 0 mm 3 mps 730 mmHg 83%
11:00 +7°C° 0 mm 4 mps 730 mmHg 81%
12:00 +8°C° 0 mm 5 mps 729 mmHg 78%
13:00 +8°C° 0 mm 6 mps 729 mmHg 78%
14:00 +8°C° 0 mm 7 mps 728 mmHg 78%
15:00 +6°C° 0 mm 7 mps 728 mmHg 77%
16:00 +7°C° 0.3 mm 6 mps 727 mmHg 83%
17:00 +7°C° 0.3 mm 5 mps 727 mmHg 89%
18:00 +7°C° 0.3 mm 5 mps 727 mmHg 95%
19:00 +5°C° 1.8 mm 6 mps 727 mmHg 93%
20:00 +5°C° 1.8 mm 7 mps 726 mmHg 92%
21:00 +3°C° 1.8 mm 9 mps 726 mmHg 90%
22:00 +4°C° 1 mm 8 mps 726 mmHg 89%
23:00 +4°C° 1 mm 7 mps 726 mmHg 88%

Tomorrow, 28 October, Wednesday

Time Temperature Precipitation Wind Pressure Humidity
00:00 +4°C° 1 mm 6 mps 727 mmHg 86%
01:00 +5°C° 0 mm 5 mps 727 mmHg 86%
02:00 +3°C° 0 mm 5 mps 727 mmHg 86%
03:00 +4°C° 0 mm 4 mps 727 mmHg 86%
04:00 +3°C° 0 mm 4 mps 727 mmHg 87%
05:00 +3°C° 0 mm 4 mps 727 mmHg 89%
06:00 +1°C° 0 mm 4 mps 727 mmHg 91%
07:00 +3°C° 0 mm 4 mps 728 mmHg 90%
08:00 +4°C° 0 mm 4 mps 728 mmHg 88%
09:00 +5°C° 0 mm 4 mps 728 mmHg 87%
10:00 +6°C° 0 mm 4 mps 729 mmHg 84%
11:00 +7°C° 0 mm 5 mps 729 mmHg 80%
12:00 +8°C° 0 mm 5 mps 729 mmHg 76%
13:00 +8°C° 0 mm 5 mps 730 mmHg 77%
14:00 +8°C° 0 mm 5 mps 730 mmHg 78%
15:00 +7°C° 0 mm 5 mps 730 mmHg 79%
16:00 +7°C° 0 mm 5 mps 730 mmHg 81%
17:00 +6°C° 0 mm 5 mps 731 mmHg 83%
18:00 +5°C° 0 mm 5 mps 731 mmHg 85%
19:00 +5°C° 0 mm 5 mps 731 mmHg 87%
20:00 +4°C° 0 mm 4 mps 732 mmHg 88%
21:00 +4°C° 0 mm 4 mps 732 mmHg 89%
22:00 +4°C° 0 mm 4 mps 732 mmHg 88%
23:00 +4°C° 0 mm 4 mps 733 mmHg 88%

Day after tomorrow, 29 October, Thursday

Time Temperature Precipitation Wind Pressure Humidity
00:00 +5°C° 0 mm 4 mps 733 mmHg 88%
01:00 +5°C° 0 mm 5 mps 734 mmHg 87%
02:00 +5°C° 0 mm 6 mps 735 mmHg 86%
03:00 +5°C° 0 mm 7 mps 735 mmHg 85%
04:00 +5°C° 0 mm 7 mps 736 mmHg 86%
05:00 +5°C° 0 mm 7 mps 737 mmHg 86%
06:00 +4°C° 0 mm 7 mps 738 mmHg 86%
07:00 +5°C° 0 mm 6 mps 739 mmHg 85%
08:00 +5°C° 0 mm 6 mps 739 mmHg 83%
09:00 +6°C° 0 mm 5 mps 740 mmHg 82%
10:00 +7°C° 0 mm 5 mps 741 mmHg 78%
11:00 +8°C° 0 mm 5 mps 741 mmHg 73%
12:00 +8°C° 0 mm 5 mps 742 mmHg 69%
13:00 +8°C° 0 mm 5 mps 741 mmHg 72%
14:00 +8°C° 0 mm 6 mps 741 mmHg 76%
15:00 +8°C° 0 mm 7 mps 741 mmHg 80%
16:00 +8°C° 0 mm 7 mps 741 mmHg 83%
17:00 +8°C° 0 mm 7 mps 740 mmHg 87%
18:00 +8°C° 0 mm 7 mps 740 mmHg 91%
19:00 +8°C° 0.1 mm 7 mps 739 mmHg 91%
20:00 +9°C° 0.1 mm 7 mps 739 mmHg 91%
21:00 +9°C° 0.1 mm 7 mps 739 mmHg 91%
22:00 +10°C° 0.2 mm 7 mps 738 mmHg 90%
23:00 +10°C° 0.2 mm 7 mps 738 mmHg 89%

30 October, Friday

Time Temperature Precipitation Wind Pressure Humidity
00:00 +10°C° 0.2 mm 7 mps 737 mmHg 89%
01:00 +11°C° 0 mm 7 mps 737 mmHg 89%
02:00 +11°C° 0 mm 6 mps 737 mmHg 89%
03:00 +11°C° 0 mm 6 mps 737 mmHg 90%
04:00 +11°C° 0 mm 6 mps 737 mmHg 90%
05:00 +10°C° 0 mm 5 mps 738 mmHg 91%
06:00 +10°C° 0 mm 5 mps 738 mmHg 91%
07:00 +10°C° 0.1 mm 5 mps 739 mmHg 90%
08:00 +11°C° 0.1 mm 4 mps 739 mmHg 89%
09:00 +11°C° 0.1 mm 4 mps 740 mmHg 88%
10:00 +11°C° 0.3 mm 4 mps 741 mmHg 88%
11:00 +10°C° 0.3 mm 4 mps 742 mmHg 89%
12:00 +10°C° 0.3 mm 3 mps 742 mmHg 90%
13:00 +10°C° 0.1 mm 4 mps 743 mmHg 87%
14:00 +11°C° 0.1 mm 4 mps 744 mmHg 84%
15:00 +11°C° 0.1 mm 4 mps 745 mmHg 81%
16:00 +8°C° 0 mm 4 mps 746 mmHg 83%
17:00 +7°C° 0 mm 4 mps 747 mmHg 85%
18:00 +6°C° 0 mm 5 mps 748 mmHg 87%
19:00 +6°C° 0 mm 4 mps 749 mmHg 87%
20:00 +5°C° 0 mm 4 mps 749 mmHg 87%
21:00 +5°C° 0 mm 3 mps 750 mmHg 87%
22:00 +4°C° 0 mm 3 mps 750 mmHg 87%
23:00 +5°C° 0 mm 2 mps 750 mmHg 86%

31 October, Saturday

Time Temperature Precipitation Wind Pressure Humidity
00:00 +5°C° 0 mm 2 mps 750 mmHg 86%
01:00 +5°C° 0 mm 2 mps 750 mmHg 86%
02:00 +5°C° 0 mm 2 mps 750 mmHg 86%
03:00 +5°C° 0 mm 2 mps 750 mmHg 86%
04:00 +6°C° 0.2 mm 2 mps 749 mmHg 88%
05:00 +5°C° 0.2 mm 3 mps 749 mmHg 90%
06:00 +5°C° 0.2 mm 4 mps 748 mmHg 93%
07:00 +5°C° 1.3 mm 5 mps 747 mmHg 93%
08:00 +5°C° 1.3 mm 7 mps 746 mmHg 93%
09:00 +5°C° 1.3 mm 8 mps 744 mmHg 94%
10:00 +6°C° 1.6 mm 8 mps 742 mmHg 95%
11:00 +6°C° 1.6 mm 9 mps 740 mmHg 96%
12:00 +7°C° 1.6 mm 9 mps 738 mmHg 97%
13:00 +8°C° 0.9 mm 10 mps 736 mmHg 95%
14:00 +11°C° 0.9 mm 10 mps 734 mmHg 92%
15:00 +12°C° 0.9 mm 11 mps 732 mmHg 90%
16:00 +12°C° 0.1 mm 11 mps 732 mmHg 89%
17:00 +12°C° 0.1 mm 10 mps 731 mmHg 88%
18:00 +11°C° 0.1 mm 9 mps 731 mmHg 87%
19:00 +11°C° 0 mm 9 mps 731 mmHg 87%
20:00 +10°C° 0 mm 8 mps 731 mmHg 87%
21:00 +9°C° 0 mm 8 mps 731 mmHg 87%
22:00 +7°C° 0 mm 8 mps 732 mmHg 86%
23:00 +6°C° 0 mm 8 mps 733 mmHg 84%

1 November, Sunday

Time Temperature Precipitation Wind Pressure Humidity
00:00 +5°C° 0 mm 7 mps 734 mmHg 83%
01:00 +4°C° 0 mm 7 mps 734 mmHg 84%
02:00 +4°C° 0 mm 6 mps 734 mmHg 85%
03:00 +5°C° 0 mm 5 mps 734 mmHg 85%
04:00 +5°C° 0.1 mm 8 mps 733 mmHg 87%
05:00 +6°C° 0.1 mm 10 mps 731 mmHg 88%
06:00 +7°C° 0.1 mm 13 mps 730 mmHg 90%
07:00 +8°C° 0.2 mm 12 mps 729 mmHg 90%
08:00 +9°C° 0.2 mm 10 mps 728 mmHg 89%
09:00 +11°C° 0.2 mm 9 mps 727 mmHg 89%
10:00 +12°C° 0.2 mm 9 mps 727 mmHg 88%
11:00 +12°C° 0.2 mm 8 mps 727 mmHg 86%
12:00 +13°C° 0.2 mm 8 mps 727 mmHg 85%
13:00 +12°C° 0.5 mm 7 mps 727 mmHg 86%
14:00 +11°C° 0.5 mm 6 mps 727 mmHg 87%
15:00 +11°C° 0.5 mm 6 mps 727 mmHg 88%
16:00 +10°C° 0.2 mm 7 mps 728 mmHg 85%
17:00 +8°C° 0.2 mm 7 mps 728 mmHg 81%
18:00 +6°C° 0.2 mm 8 mps 729 mmHg 78%
19:00 +6°C° 0 mm 9 mps 730 mmHg 78%
20:00 +5°C° 0 mm 9 mps 730 mmHg 77%
21:00 +5°C° 0 mm 10 mps 731 mmHg 77%
22:00 +5°C° 0 mm 10 mps 732 mmHg 76%
23:00 +5°C° 0 mm 10 mps 732 mmHg 75%
Show more